owner,sensor,date,latitude,longitude,air_temperature,qcFlag 
DISL,ioos:station:DISL:DISL:1,2014-05-01T00:00:00Z,30.2513,-88.0778,22.57,1111122 
DISL,ioos:station:DISL:DISL:1,2014-05-01T00:30:00Z,30.2513,-88.0778,22.35,1111122 
DISL,ioos:station:DISL:DISL:1,2014-05-01T01:00:00Z,30.2513,-88.0778,22.28,1111122 
DISL,ioos:station:DISL:DISL:1,2014-05-01T01:30:00Z,30.2513,-88.0778,22.43,1111122 
DISL,ioos:station:DISL:DISL:1,2014-05-01T02:00:00Z,30.2513,-88.0778,21.68,1111122 
DISL,ioos:station:DISL:DISL:1,2014-05-01T02:30:00Z,30.2513,-88.0778,22.58,1111122 
DISL,ioos:station:DISL:DISL:1,2014-05-01T03:00:00Z,30.2513,-88.0778,21.31,1111122 
DISL,ioos:station:DISL:DISL:1,2014-05-01T03:30:00Z,30.2513,-88.0778,20.93,1111122 
DISL,ioos:station:DISL:DISL:1,2014-05-01T04:00:00Z,30.2513,-88.0778,20.21,1111122 
DISL,ioos:station:DISL:DISL:1,2014-05-01T04:30:00Z,30.2513,-88.0778,20.31,1111122 
DISL,ioos:station:DISL:DISL:1,2014-05-01T05:00:00Z,30.2513,-88.0778,19.25,1111122 
DISL,ioos:station:DISL:DISL:1,2014-05-01T05:30:00Z,30.2513,-88.0778,19.3,1111122 
DISL,ioos:station:DISL:DISL:1,2014-05-01T06:00:00Z,30.2513,-88.0778,18.48,1111122 
DISL,ioos:station:DISL:DISL:1,2014-05-01T06:30:00Z,30.2513,-88.0778,17.85,1111122 
DISL,ioos:station:DISL:DISL:1,2014-05-01T07:00:00Z,30.2513,-88.0778,17.95,1111122 
DISL,ioos:station:DISL:DISL:1,2014-05-01T07:30:00Z,30.2513,-88.0778,17.81,1111122 
DISL,ioos:station:DISL:DISL:1,2014-05-01T08:00:00Z,30.2513,-88.0778,17.27,1111122 
DISL,ioos:station:DISL:DISL:1,2014-05-01T08:30:00Z,30.2513,-88.0778,16.75,1111122 
DISL,ioos:station:DISL:DISL:1,2014-05-01T09:00:00Z,30.2513,-88.0778,16.55,1111122 
DISL,ioos:station:DISL:DISL:1,2014-05-01T09:30:00Z,30.2513,-88.0778,16.34,1111122 
DISL,ioos:station:DISL:DISL:1,2014-05-01T10:00:00Z,30.2513,-88.0778,16.1,1111122 
DISL,ioos:station:DISL:DISL:1,2014-05-01T10:30:00Z,30.2513,-88.0778,16.04,1111122 
DISL,ioos:station:DISL:DISL:1,2014-05-01T11:00:00Z,30.2513,-88.0778,15.91,1111122 
DISL,ioos:station:DISL:DISL:1,2014-05-01T11:30:00Z,30.2513,-88.0778,15.4,1111122 
DISL,ioos:station:DISL:DISL:1,2014-05-01T12:00:00Z,30.2513,-88.0778,15.26,1111122 
DISL,ioos:station:DISL:DISL:1,2014-05-01T12:30:00Z,30.2513,-88.0778,15.09,1111122 
DISL,ioos:station:DISL:DISL:1,2014-05-01T13:00:00Z,30.2513,-88.0778,14.88,1111122 
DISL,ioos:station:DISL:DISL:1,2014-05-01T13:30:00Z,30.2513,-88.0778,14.92,1111122 
DISL,ioos:station:DISL:DISL:1,2014-05-01T14:00:00Z,30.2513,-88.0778,14.78,1111122 
DISL,ioos:station:DISL:DISL:1,2014-05-01T14:30:00Z,30.2513,-88.0778,14.85,1111122 
DISL,ioos:station:DISL:DISL:1,2014-05-01T15:00:00Z,30.2513,-88.0778,14.78,1111122 
DISL,ioos:station:DISL:DISL:1,2014-05-01T15:30:00Z,30.2513,-88.0778,14.78,1111122 
DISL,ioos:station:DISL:DISL:1,2014-05-01T16:00:00Z,30.2513,-88.0778,14.95,1111122 
DISL,ioos:station:DISL:DISL:1,2014-05-01T16:30:00Z,30.2513,-88.0778,15.11,1111122 
DISL,ioos:station:DISL:DISL:1,2014-05-01T17:00:00Z,30.2513,-88.0778,15.21,1111122 
DISL,ioos:station:DISL:DISL:1,2014-05-01T17:30:00Z,30.2513,-88.0778,15.62,1111122 
DISL,ioos:station:DISL:DISL:1,2014-05-01T18:00:00Z,30.2513,-88.0778,15.89,1111122 
DISL,ioos:station:DISL:DISL:1,2014-05-01T18:30:00Z,30.2513,-88.0778,16.19,1111122 
DISL,ioos:station:DISL:DISL:1,2014-05-01T19:00:00Z,30.2513,-88.0778,16.59,1111122 
DISL,ioos:station:DISL:DISL:1,2014-05-01T19:30:00Z,30.2513,-88.0778,17.19,1111122 
DISL,ioos:station:DISL:DISL:1,2014-05-01T20:00:00Z,30.2513,-88.0778,17.26,1111122 
DISL,ioos:station:DISL:DISL:1,2014-05-01T20:30:00Z,30.2513,-88.0778,17.43,1111122 
DISL,ioos:station:DISL:DISL:1,2014-05-01T21:00:00Z,30.2513,-88.0778,18.24,1111122 
DISL,ioos:station:DISL:DISL:1,2014-05-01T21:30:00Z,30.2513,-88.0778,18.71,1111122 
DISL,ioos:station:DISL:DISL:1,2014-05-01T22:00:00Z,30.2513,-88.0778,18.37,1111122 
DISL,ioos:station:DISL:DISL:1,2014-05-01T22:30:00Z,30.2513,-88.0778,18.51,1111122 
DISL,ioos:station:DISL:DISL:1,2014-05-01T23:00:00Z,30.2513,-88.0778,18.07,1111122 
DISL,ioos:station:DISL:DISL:1,2014-05-01T23:30:00Z,30.2513,-88.0778,17.71,1111122 
DISL,ioos:station:DISL:DISL:1,2014-05-02T00:00:00Z,30.2513,-88.0778,17.35,1111122 
DISL,ioos:station:DISL:DISL:1,2014-05-02T00:30:00Z,30.2513,-88.0778,17.16,1111122 
DISL,ioos:station:DISL:DISL:1,2014-05-02T01:00:00Z,30.2513,-88.0778,16.85,1111122 
DISL,ioos:station:DISL:DISL:1,2014-05-02T01:30:00Z,30.2513,-88.0778,17.23,1111122 
DISL,ioos:station:DISL:DISL:1,2014-05-02T02:00:00Z,30.2513,-88.0778,17.51,1111122 
DISL,ioos:station:DISL:DISL:1,2014-05-02T02:30:00Z,30.2513,-88.0778,17.68,1111122 
DISL,ioos:station:DISL:DISL:1,2014-05-02T03:00:00Z,30.2513,-88.0778,17.61,1111122 
DISL,ioos:station:DISL:DISL:1,2014-05-02T03:30:00Z,30.2513,-88.0778,18.12,1111122 
DISL,ioos:station:DISL:DISL:1,2014-05-02T04:00:00Z,30.2513,-88.0778,18.33,1111122 
DISL,ioos:station:DISL:DISL:1,2014-05-02T04:30:00Z,30.2513,-88.0778,17.81,1111122 
DISL,ioos:station:DISL:DISL:1,2014-05-02T05:00:00Z,30.2513,-88.0778,17.71,1111122 
DISL,ioos:station:DISL:DISL:1,2014-05-02T05:30:00Z,30.2513,-88.0778,18.06,1111122 
DISL,ioos:station:DISL:DISL:1,2014-05-02T06:00:00Z,30.2513,-88.0778,18.09,1111122 
DISL,ioos:station:DISL:DISL:1,2014-05-02T06:30:00Z,30.2513,-88.0778,17.51,1111122 
DISL,ioos:station:DISL:DISL:1,2014-05-02T07:00:00Z,30.2513,-88.0778,18.09,1111122 
DISL,ioos:station:DISL:DISL:1,2014-05-02T07:30:00Z,30.2513,-88.0778,18.36,1111122 
DISL,ioos:station:DISL:DISL:1,2014-05-02T08:00:00Z,30.2513,-88.0778,18.64,1111122 
DISL,ioos:station:DISL:DISL:1,2014-05-02T08:30:00Z,30.2513,-88.0778,18.71,1111122 
DISL,ioos:station:DISL:DISL:1,2014-05-02T09:00:00Z,30.2513,-88.0778,18.67,1111122 
DISL,ioos:station:DISL:DISL:1,2014-05-02T09:30:00Z,30.2513,-88.0778,18.78,1111122 
DISL,ioos:station:DISL:DISL:1,2014-05-02T10:00:00Z,30.2513,-88.0778,18.74,1111122 
DISL,ioos:station:DISL:DISL:1,2014-05-02T10:30:00Z,30.2513,-88.0778,18.77,1111122 
DISL,ioos:station:DISL:DISL:1,2014-05-02T11:00:00Z,30.2513,-88.0778,18.7,1111122 
DISL,ioos:station:DISL:DISL:1,2014-05-02T11:30:00Z,30.2513,-88.0778,18.64,1111122 
DISL,ioos:station:DISL:DISL:1,2014-05-02T12:00:00Z,30.2513,-88.0778,18.74,1111122 
DISL,ioos:station:DISL:DISL:1,2014-05-02T12:30:00Z,30.2513,-88.0778,18.46,1111122 
DISL,ioos:station:DISL:DISL:1,2014-05-02T13:00:00Z,30.2513,-88.0778,18.07,1111122 
DISL,ioos:station:DISL:DISL:1,2014-05-02T13:30:00Z,30.2513,-88.0778,18.55,1111122 
DISL,ioos:station:DISL:DISL:1,2014-05-02T14:00:00Z,30.2513,-88.0778,18.23,1111122 
DISL,ioos:station:DISL:DISL:1,2014-05-02T14:30:00Z,30.2513,-88.0778,18.29,1111122 
DISL,ioos:station:DISL:DISL:1,2014-05-02T15:00:00Z,30.2513,-88.0778,18.5,1111122 
DISL,ioos:station:DISL:DISL:1,2014-05-02T15:30:00Z,30.2513,-88.0778,18.66,1111122 
DISL,ioos:station:DISL:DISL:1,2014-05-02T16:00:00Z,30.2513,-88.0778,18.68,1111122 
DISL,ioos:station:DISL:DISL:1,2014-05-02T16:30:00Z,30.2513,-88.0778,19.02,1111122 
DISL,ioos:station:DISL:DISL:1,2014-05-02T17:00:00Z,30.2513,-88.0778,19.13,1111122 
DISL,ioos:station:DISL:DISL:1,2014-05-02T17:30:00Z,30.2513,-88.0778,19.16,1111122 
DISL,ioos:station:DISL:DISL:1,2014-05-02T18:00:00Z,30.2513,-88.0778,19.64,1111122 
DISL,ioos:station:DISL:DISL:1,2014-05-02T18:30:00Z,30.2513,-88.0778,20.32,1111122 
DISL,ioos:station:DISL:DISL:1,2014-05-02T19:00:00Z,30.2513,-88.0778,20.34,1111122 
DISL,ioos:station:DISL:DISL:1,2014-05-02T19:30:00Z,30.2513,-88.0778,20.51,1111122 
DISL,ioos:station:DISL:DISL:1,2014-05-02T20:00:00Z,30.2513,-88.0778,21.13,1111122 
DISL,ioos:station:DISL:DISL:1,2014-05-02T20:30:00Z,30.2513,-88.0778,20.42,1111122 
DISL,ioos:station:DISL:DISL:1,2014-05-02T21:00:00Z,30.2513,-88.0778,20.83,1111122 
DISL,ioos:station:DISL:DISL:1,2014-05-02T21:30:00Z,30.2513,-88.0778,20.3,1111122 
DISL,ioos:station:DISL:DISL:1,2014-05-02T22:00:00Z,30.2513,-88.0778,19.88,1111122 
DISL,ioos:station:DISL:DISL:1,2014-05-02T22:30:00Z,30.2513,-88.0778,19.86,1111122 
DISL,ioos:station:DISL:DISL:1,2014-05-02T23:00:00Z,30.2513,-88.0778,19.66,1111122 
DISL,ioos:station:DISL:DISL:1,2014-05-02T23:30:00Z,30.2513,-88.0778,19.8,1111122 
DISL,ioos:station:DISL:DISL:1,2014-05-03T00:00:00Z,30.2513,-88.0778,19.59,1111122 
DISL,ioos:station:DISL:DISL:1,2014-05-03T00:30:00Z,30.2513,-88.0778,19.43,1111122 
DISL,ioos:station:DISL:DISL:1,2014-05-03T01:00:00Z,30.2513,-88.0778,19.44,1111122 
DISL,ioos:station:DISL:DISL:1,2014-05-03T01:30:00Z,30.2513,-88.0778,19.51,1111122 
DISL,ioos:station:DISL:DISL:1,2014-05-03T02:00:00Z,30.2513,-88.0778,19.61,1111122 
DISL,ioos:station:DISL:DISL:1,2014-05-03T02:30:00Z,30.2513,-88.0778,19.89,1111122 
DISL,ioos:station:DISL:DISL:1,2014-05-03T03:00:00Z,30.2513,-88.0778,20.37,1111122 
DISL,ioos:station:DISL:DISL:1,2014-05-03T03:30:00Z,30.2513,-88.0778,20.54,1111122 
DISL,ioos:station:DISL:DISL:1,2014-05-03T04:00:00Z,30.2513,-88.0778,20.29,1111122 
DISL,ioos:station:DISL:DISL:1,2014-05-03T04:30:00Z,30.2513,-88.0778,20.59,1111122 
DISL,ioos:station:DISL:DISL:1,2014-05-03T05:00:00Z,30.2513,-88.0778,20.08,1111122 
DISL,ioos:station:DISL:DISL:1,2014-05-03T05:30:00Z,30.2513,-88.0778,19.98,1111122 
DISL,ioos:station:DISL:DISL:1,2014-05-03T06:00:00Z,30.2513,-88.0778,20.16,1111122 
DISL,ioos:station:DISL:DISL:1,2014-05-03T06:30:00Z,30.2513,-88.0778,20.06,1111122 
DISL,ioos:station:DISL:DISL:1,2014-05-03T07:00:00Z,30.2513,-88.0778,19.99,1111122 
DISL,ioos:station:DISL:DISL:1,2014-05-03T07:30:00Z,30.2513,-88.0778,19.37,1111122 
DISL,ioos:station:DISL:DISL:1,2014-05-03T08:00:00Z,30.2513,-88.0778,19.44,1111122 
DISL,ioos:station:DISL:DISL:1,2014-05-03T08:30:00Z,30.2513,-88.0778,19.37,1111122 
DISL,ioos:station:DISL:DISL:1,2014-05-03T09:00:00Z,30.2513,-88.0778,19.06,1111122 
DISL,ioos:station:DISL:DISL:1,2014-05-03T09:30:00Z,30.2513,-88.0778,19.03,1111122 
DISL,ioos:station:DISL:DISL:1,2014-05-03T10:00:00Z,30.2513,-88.0778,19.15,1111122 
DISL,ioos:station:DISL:DISL:1,2014-05-03T10:30:00Z,30.2513,-88.0778,19.32,1111122 
DISL,ioos:station:DISL:DISL:1,2014-05-03T11:00:00Z,30.2513,-88.0778,19.26,1111122 
DISL,ioos:station:DISL:DISL:1,2014-05-03T11:30:00Z,30.2513,-88.0778,18.19,1111122 
DISL,ioos:station:DISL:DISL:1,2014-05-03T12:00:00Z,30.2513,-88.0778,18.43,1111122 
DISL,ioos:station:DISL:DISL:1,2014-05-03T12:30:00Z,30.2513,-88.0778,18.52,1111122 
DISL,ioos:station:DISL:DISL:1,2014-05-03T13:00:00Z,30.2513,-88.0778,18.79,1111122 
DISL,ioos:station:DISL:DISL:1,2014-05-03T13:30:00Z,30.2513,-88.0778,19.22,1111122 
DISL,ioos:station:DISL:DISL:1,2014-05-03T14:00:00Z,30.2513,-88.0778,19.42,1111122 
DISL,ioos:station:DISL:DISL:1,2014-05-03T14:30:00Z,30.2513,-88.0778,20.21,1111122 
DISL,ioos:station:DISL:DISL:1,2014-05-03T15:00:00Z,30.2513,-88.0778,20.44,1111122 
DISL,ioos:station:DISL:DISL:1,2014-05-03T15:30:00Z,30.2513,-88.0778,20.91,1111122 
DISL,ioos:station:DISL:DISL:1,2014-05-03T16:00:00Z,30.2513,-88.0778,21.39,1111122 
DISL,ioos:station:DISL:DISL:1,2014-05-03T16:30:00Z,30.2513,-88.0778,21.9,1111122 
DISL,ioos:station:DISL:DISL:1,2014-05-03T17:00:00Z,30.2513,-88.0778,22.14,1111122 
DISL,ioos:station:DISL:DISL:1,2014-05-03T17:30:00Z,30.2513,-88.0778,22.59,1111122 
DISL,ioos:station:DISL:DISL:1,2014-05-03T18:00:00Z,30.2513,-88.0778,23.12,1111122 
DISL,ioos:station:DISL:DISL:1,2014-05-03T18:30:00Z,30.2513,-88.0778,23.28,1111122 
DISL,ioos:station:DISL:DISL:1,2014-05-03T19:00:00Z,30.2513,-88.0778,23.33,1111122 
DISL,ioos:station:DISL:DISL:1,2014-05-03T19:30:00Z,30.2513,-88.0778,23.78,1111122 
DISL,ioos:station:DISL:DISL:1,2014-05-03T20:00:00Z,30.2513,-88.0778,23.71,1111122 
DISL,ioos:station:DISL:DISL:1,2014-05-03T20:30:00Z,30.2513,-88.0778,23.88,1111122 
DISL,ioos:station:DISL:DISL:1,2014-05-03T21:00:00Z,30.2513,-88.0778,24.24,1111122 
DISL,ioos:station:DISL:DISL:1,2014-05-03T21:30:00Z,30.2513,-88.0778,23.62,1111122 
DISL,ioos:station:DISL:DISL:1,2014-05-03T22:00:00Z,30.2513,-88.0778,23.72,1111122 
DISL,ioos:station:DISL:DISL:1,2014-05-03T22:30:00Z,30.2513,-88.0778,23.6,1111122 
DISL,ioos:station:DISL:DISL:1,2014-05-03T23:00:00Z,30.2513,-88.0778,23.68,1111122 
DISL,ioos:station:DISL:DISL:1,2014-05-03T23:30:00Z,30.2513,-88.0778,23.47,1111122 
DISL,ioos:station:DISL:DISL:1,2014-05-04T00:00:00Z,30.2513,-88.0778,23.18,1111122 
DISL,ioos:station:DISL:DISL:1,2014-05-04T00:30:00Z,30.2513,-88.0778,22.26,1111122 
DISL,ioos:station:DISL:DISL:1,2014-05-04T01:00:00Z,30.2513,-88.0778,22.0,1111122 
DISL,ioos:station:DISL:DISL:1,2014-05-04T01:30:00Z,30.2513,-88.0778,22.02,1111122 
DISL,ioos:station:DISL:DISL:1,2014-05-04T02:00:00Z,30.2513,-88.0778,21.99,1111122 
DISL,ioos:station:DISL:DISL:1,2014-05-04T02:30:00Z,30.2513,-88.0778,21.82,1111122 
DISL,ioos:station:DISL:DISL:1,2014-05-04T03:00:00Z,30.2513,-88.0778,21.96,1111122 
DISL,ioos:station:DISL:DISL:1,2014-05-04T03:30:00Z,30.2513,-88.0778,21.92,1111122 
DISL,ioos:station:DISL:DISL:1,2014-05-04T04:00:00Z,30.2513,-88.0778,21.82,1111122 
DISL,ioos:station:DISL:DISL:1,2014-05-04T04:30:00Z,30.2513,-88.0778,21.68,1111122 
DISL,ioos:station:DISL:DISL:1,2014-05-04T05:00:00Z,30.2513,-88.0778,21.72,1111122 
DISL,ioos:station:DISL:DISL:1,2014-05-04T05:30:00Z,30.2513,-88.0778,21.55,1111122 
DISL,ioos:station:DISL:DISL:1,2014-05-04T06:00:00Z,30.2513,-88.0778,21.55,1111122 
DISL,ioos:station:DISL:DISL:1,2014-05-04T06:30:00Z,30.2513,-88.0778,21.38,1111122 
DISL,ioos:station:DISL:DISL:1,2014-05-04T07:00:00Z,30.2513,-88.0778,21.35,1111122 
DISL,ioos:station:DISL:DISL:1,2014-05-04T07:30:00Z,30.2513,-88.0778,21.05,1111122 
DISL,ioos:station:DISL:DISL:1,2014-05-04T08:00:00Z,30.2513,-88.0778,21.29,1111122 
DISL,ioos:station:DISL:DISL:1,2014-05-04T08:30:00Z,30.2513,-88.0778,21.32,1111122 
DISL,ioos:station:DISL:DISL:1,2014-05-04T09:00:00Z,30.2513,-88.0778,21.07,1111122 
DISL,ioos:station:DISL:DISL:1,2014-05-04T09:30:00Z,30.2513,-88.0778,20.9,1111122 
DISL,ioos:station:DISL:DISL:1,2014-05-04T10:00:00Z,30.2513,-88.0778,20.25,1111122 
DISL,ioos:station:DISL:DISL:1,2014-05-04T10:30:00Z,30.2513,-88.0778,19.92,1111122 
DISL,ioos:station:DISL:DISL:1,2014-05-04T11:00:00Z,30.2513,-88.0778,19.13,1111122 
DISL,ioos:station:DISL:DISL:1,2014-05-04T11:30:00Z,30.2513,-88.0778,19.51,1111122 
DISL,ioos:station:DISL:DISL:1,2014-05-04T12:00:00Z,30.2513,-88.0778,20.09,1111122 
DISL,ioos:station:DISL:DISL:1,2014-05-04T12:30:00Z,30.2513,-88.0778,20.39,1111122 
DISL,ioos:station:DISL:DISL:1,2014-05-04T13:00:00Z,30.2513,-88.0778,20.24,1111122 
DISL,ioos:station:DISL:DISL:1,2014-05-04T13:30:00Z,30.2513,-88.0778,20.14,1111122 
DISL,ioos:station:DISL:DISL:1,2014-05-04T14:00:00Z,30.2513,-88.0778,20.27,1111122 
DISL,ioos:station:DISL:DISL:1,2014-05-04T14:30:00Z,30.2513,-88.0778,20.6,1111122 
DISL,ioos:station:DISL:DISL:1,2014-05-04T15:00:00Z,30.2513,-88.0778,21.18,1111122 
DISL,ioos:station:DISL:DISL:1,2014-05-04T15:30:00Z,30.2513,-88.0778,21.78,1111122 
DISL,ioos:station:DISL:DISL:1,2014-05-04T16:00:00Z,30.2513,-88.0778,22.98,1111122 
DISL,ioos:station:DISL:DISL:1,2014-05-04T16:30:00Z,30.2513,-88.0778,23.13,1111122 
DISL,ioos:station:DISL:DISL:1,2014-05-04T17:00:00Z,30.2513,-88.0778,24.05,1111122 
DISL,ioos:station:DISL:DISL:1,2014-05-04T17:30:00Z,30.2513,-88.0778,24.29,1111122 
DISL,ioos:station:DISL:DISL:1,2014-05-04T18:00:00Z,30.2513,-88.0778,24.6,1111122 
DISL,ioos:station:DISL:DISL:1,2014-05-04T18:30:00Z,30.2513,-88.0778,24.07,1111122 
DISL,ioos:station:DISL:DISL:1,2014-05-04T19:00:00Z,30.2513,-88.0778,24.14,1111122 
DISL,ioos:station:DISL:DISL:1,2014-05-04T19:30:00Z,30.2513,-88.0778,23.76,1111122 
DISL,ioos:station:DISL:DISL:1,2014-05-04T20:00:00Z,30.2513,-88.0778,24.03,1111122 
DISL,ioos:station:DISL:DISL:1,2014-05-04T20:30:00Z,30.2513,-88.0778,24.41,1111122 
DISL,ioos:station:DISL:DISL:1,2014-05-04T21:00:00Z,30.2513,-88.0778,24.44,1111122 
DISL,ioos:station:DISL:DISL:1,2014-05-04T21:30:00Z,30.2513,-88.0778,24.44,1111122 
DISL,ioos:station:DISL:DISL:1,2014-05-04T22:00:00Z,30.2513,-88.0778,24.37,1111122 
DISL,ioos:station:DISL:DISL:1,2014-05-04T22:30:00Z,30.2513,-88.0778,24.1,1111122 
DISL,ioos:station:DISL:DISL:1,2014-05-04T23:00:00Z,30.2513,-88.0778,24.13,1111122 
DISL,ioos:station:DISL:DISL:1,2014-05-04T23:30:00Z,30.2513,-88.0778,24.32,1111122 
DISL,ioos:station:DISL:DISL:1,2014-05-05T00:00:00Z,30.2513,-88.0778,24.09,1111122 
DISL,ioos:station:DISL:DISL:1,2014-05-05T00:30:00Z,30.2513,-88.0778,23.21,1111122 
DISL,ioos:station:DISL:DISL:1,2014-05-05T01:00:00Z,30.2513,-88.0778,22.92,1111122 
DISL,ioos:station:DISL:DISL:1,2014-05-05T01:30:00Z,30.2513,-88.0778,22.9,1111122 
DISL,ioos:station:DISL:DISL:1,2014-05-05T02:00:00Z,30.2513,-88.0778,22.7,1111122 
DISL,ioos:station:DISL:DISL:1,2014-05-05T02:30:00Z,30.2513,-88.0778,22.57,1111122 
DISL,ioos:station:DISL:DISL:1,2014-05-05T03:00:00Z,30.2513,-88.0778,22.64,1111122 
DISL,ioos:station:DISL:DISL:1,2014-05-05T03:30:00Z,30.2513,-88.0778,22.47,1111122 
DISL,ioos:station:DISL:DISL:1,2014-05-05T04:00:00Z,30.2513,-88.0778,22.4,1111122 
DISL,ioos:station:DISL:DISL:1,2014-05-05T04:30:00Z,30.2513,-88.0778,22.33,1111122 
DISL,ioos:station:DISL:DISL:1,2014-05-05T05:00:00Z,30.2513,-88.0778,22.2,1111122 
DISL,ioos:station:DISL:DISL:1,2014-05-05T05:30:00Z,30.2513,-88.0778,22.13,1111122 
DISL,ioos:station:DISL:DISL:1,2014-05-05T06:00:00Z,30.2513,-88.0778,22.16,1111122 
DISL,ioos:station:DISL:DISL:1,2014-05-05T06:30:00Z,30.2513,-88.0778,22.09,1111122 
DISL,ioos:station:DISL:DISL:1,2014-05-05T07:00:00Z,30.2513,-88.0778,21.96,1111122 
DISL,ioos:station:DISL:DISL:1,2014-05-05T07:30:00Z,30.2513,-88.0778,21.89,1111122 
DISL,ioos:station:DISL:DISL:1,2014-05-05T08:00:00Z,30.2513,-88.0778,21.75,1111122 
DISL,ioos:station:DISL:DISL:1,2014-05-05T08:30:00Z,30.2513,-88.0778,21.72,1111122 
DISL,ioos:station:DISL:DISL:1,2014-05-05T09:00:00Z,30.2513,-88.0778,21.75,1111122 
DISL,ioos:station:DISL:DISL:1,2014-05-05T09:30:00Z,30.2513,-88.0778,21.61,1111122 
DISL,ioos:station:DISL:DISL:1,2014-05-05T10:00:00Z,30.2513,-88.0778,21.27,1111122 
DISL,ioos:station:DISL:DISL:1,2014-05-05T10:30:00Z,30.2513,-88.0778,21.63,1111122 
DISL,ioos:station:DISL:DISL:1,2014-05-05T11:00:00Z,30.2513,-88.0778,21.62,1111122 
DISL,ioos:station:DISL:DISL:1,2014-05-05T11:30:00Z,30.2513,-88.0778,21.59,1111122 
DISL,ioos:station:DISL:DISL:1,2014-05-05T12:00:00Z,30.2513,-88.0778,21.79,1111122 
DISL,ioos:station:DISL:DISL:1,2014-05-05T12:30:00Z,30.2513,-88.0778,22.19,1111122 
DISL,ioos:station:DISL:DISL:1,2014-05-05T13:00:00Z,30.2513,-88.0778,22.07,1111122 
DISL,ioos:station:DISL:DISL:1,2014-05-05T13:30:00Z,30.2513,-88.0778,22.11,1111122 
DISL,ioos:station:DISL:DISL:1,2014-05-05T14:00:00Z,30.2513,-88.0778,21.96,1111122 
DISL,ioos:station:DISL:DISL:1,2014-05-05T14:30:00Z,30.2513,-88.0778,22.19,1111122 
DISL,ioos:station:DISL:DISL:1,2014-05-05T15:00:00Z,30.2513,-88.0778,22.66,1111122 
DISL,ioos:station:DISL:DISL:1,2014-05-05T15:30:00Z,30.2513,-88.0778,22.96,1111122 
DISL,ioos:station:DISL:DISL:1,2014-05-05T16:00:00Z,30.2513,-88.0778,23.13,1111122 
DISL,ioos:station:DISL:DISL:1,2014-05-05T16:30:00Z,30.2513,-88.0778,24.6,1111122 
DISL,ioos:station:DISL:DISL:1,2014-05-05T17:00:00Z,30.2513,-88.0778,24.6,1111122 
DISL,ioos:station:DISL:DISL:1,2014-05-05T17:30:00Z,30.2513,-88.0778,24.43,1111122 
DISL,ioos:station:DISL:DISL:1,2014-05-05T18:00:00Z,30.2513,-88.0778,24.94,1111122 
DISL,ioos:station:DISL:DISL:1,2014-05-05T18:30:00Z,30.2513,-88.0778,24.9,1111122 
DISL,ioos:station:DISL:DISL:1,2014-05-05T19:00:00Z,30.2513,-88.0778,24.95,1111122 
DISL,ioos:station:DISL:DISL:1,2014-05-05T19:30:00Z,30.2513,-88.0778,25.61,1111122 
DISL,ioos:station:DISL:DISL:1,2014-05-05T20:00:00Z,30.2513,-88.0778,25.5,1111122 
DISL,ioos:station:DISL:DISL:1,2014-05-05T20:30:00Z,30.2513,-88.0778,25.56,1111122 
DISL,ioos:station:DISL:DISL:1,2014-05-05T21:00:00Z,30.2513,-88.0778,25.59,1111122 
DISL,ioos:station:DISL:DISL:1,2014-05-05T21:30:00Z,30.2513,-88.0778,25.74,1111122 
DISL,ioos:station:DISL:DISL:1,2014-05-05T22:00:00Z,30.2513,-88.0778,25.26,1111122 
DISL,ioos:station:DISL:DISL:1,2014-05-05T22:30:00Z,30.2513,-88.0778,24.99,1111122 
DISL,ioos:station:DISL:DISL:1,2014-05-05T23:00:00Z,30.2513,-88.0778,25.23,1111122 
DISL,ioos:station:DISL:DISL:1,2014-05-05T23:30:00Z,30.2513,-88.0778,25.09,1111122 
DISL,ioos:station:DISL:DISL:1,2014-05-06T00:00:00Z,30.2513,-88.0778,24.94,1111122 
DISL,ioos:station:DISL:DISL:1,2014-05-06T00:30:00Z,30.2513,-88.0778,23.71,1111122 
DISL,ioos:station:DISL:DISL:1,2014-05-06T01:00:00Z,30.2513,-88.0778,23.18,1111122 
DISL,ioos:station:DISL:DISL:1,2014-05-06T01:30:00Z,30.2513,-88.0778,23.03,1111122 
DISL,ioos:station:DISL:DISL:1,2014-05-06T02:00:00Z,30.2513,-88.0778,22.88,1111122 
DISL,ioos:station:DISL:DISL:1,2014-05-06T02:30:00Z,30.2513,-88.0778,22.71,1111122 
DISL,ioos:station:DISL:DISL:1,2014-05-06T03:00:00Z,30.2513,-88.0778,22.64,1111122 
DISL,ioos:station:DISL:DISL:1,2014-05-06T03:30:00Z,30.2513,-88.0778,22.78,1111122 
DISL,ioos:station:DISL:DISL:1,2014-05-06T04:00:00Z,30.2513,-88.0778,22.68,1111122 
DISL,ioos:station:DISL:DISL:1,2014-05-06T04:30:00Z,30.2513,-88.0778,22.71,1111122 
DISL,ioos:station:DISL:DISL:1,2014-05-06T05:00:00Z,30.2513,-88.0778,22.75,1111122 
DISL,ioos:station:DISL:DISL:1,2014-05-06T05:30:00Z,30.2513,-88.0778,22.68,1111122 
DISL,ioos:station:DISL:DISL:1,2014-05-06T06:00:00Z,30.2513,-88.0778,22.58,1111122 
DISL,ioos:station:DISL:DISL:1,2014-05-06T06:30:00Z,30.2513,-88.0778,22.3,1111122 
DISL,ioos:station:DISL:DISL:1,2014-05-06T07:00:00Z,30.2513,-88.0778,22.13,1111122 
DISL,ioos:station:DISL:DISL:1,2014-05-06T07:30:00Z,30.2513,-88.0778,22.13,1111122 
DISL,ioos:station:DISL:DISL:1,2014-05-06T08:00:00Z,30.2513,-88.0778,22.13,1111122 
DISL,ioos:station:DISL:DISL:1,2014-05-06T08:30:00Z,30.2513,-88.0778,21.99,1111122 
DISL,ioos:station:DISL:DISL:1,2014-05-06T09:00:00Z,30.2513,-88.0778,22.03,1111122 
DISL,ioos:station:DISL:DISL:1,2014-05-06T09:30:00Z,30.2513,-88.0778,21.89,1111122 
DISL,ioos:station:DISL:DISL:1,2014-05-06T10:00:00Z,30.2513,-88.0778,21.75,1111122 
DISL,ioos:station:DISL:DISL:1,2014-05-06T10:30:00Z,30.2513,-88.0778,21.66,1111122 
DISL,ioos:station:DISL:DISL:1,2014-05-06T11:00:00Z,30.2513,-88.0778,21.63,1111122 
DISL,ioos:station:DISL:DISL:1,2014-05-06T11:30:00Z,30.2513,-88.0778,21.91,1111122 
DISL,ioos:station:DISL:DISL:1,2014-05-06T12:00:00Z,30.2513,-88.0778,22.78,1111122 
DISL,ioos:station:DISL:DISL:1,2014-05-06T12:30:00Z,30.2513,-88.0778,23.07,1111122 
DISL,ioos:station:DISL:DISL:1,2014-05-06T13:00:00Z,30.2513,-88.0778,23.08,1111122 
DISL,ioos:station:DISL:DISL:1,2014-05-06T13:30:00Z,30.2513,-88.0778,23.07,1111122 
DISL,ioos:station:DISL:DISL:1,2014-05-06T14:00:00Z,30.2513,-88.0778,23.68,1111122 
DISL,ioos:station:DISL:DISL:1,2014-05-06T14:30:00Z,30.2513,-88.0778,23.33,1111122 
DISL,ioos:station:DISL:DISL:1,2014-05-06T15:00:00Z,30.2513,-88.0778,23.5,1111122 
DISL,ioos:station:DISL:DISL:1,2014-05-06T15:30:00Z,30.2513,-88.0778,23.21,1111122 
DISL,ioos:station:DISL:DISL:1,2014-05-06T16:00:00Z,30.2513,-88.0778,23.62,1111122 
DISL,ioos:station:DISL:DISL:1,2014-05-06T16:30:00Z,30.2513,-88.0778,24.14,1111122 
DISL,ioos:station:DISL:DISL:1,2014-05-06T17:00:00Z,30.2513,-88.0778,24.22,1111122 
DISL,ioos:station:DISL:DISL:1,2014-05-06T17:30:00Z,30.2513,-88.0778,23.85,1111122 
DISL,ioos:station:DISL:DISL:1,2014-05-06T18:00:00Z,30.2513,-88.0778,24.22,1111122 
DISL,ioos:station:DISL:DISL:1,2014-05-06T18:30:00Z,30.2513,-88.0778,24.21,1111122 
DISL,ioos:station:DISL:DISL:1,2014-05-06T19:00:00Z,30.2513,-88.0778,24.03,1111122 
DISL,ioos:station:DISL:DISL:1,2014-05-06T19:30:00Z,30.2513,-88.0778,24.2,1111122 
DISL,ioos:station:DISL:DISL:1,2014-05-06T20:00:00Z,30.2513,-88.0778,24.23,1111122 
DISL,ioos:station:DISL:DISL:1,2014-05-06T20:30:00Z,30.2513,-88.0778,24.53,1111122 
DISL,ioos:station:DISL:DISL:1,2014-05-06T21:00:00Z,30.2513,-88.0778,24.43,1111122 
DISL,ioos:station:DISL:DISL:1,2014-05-06T21:30:00Z,30.2513,-88.0778,24.56,1111122 
DISL,ioos:station:DISL:DISL:1,2014-05-06T22:00:00Z,30.2513,-88.0778,24.53,1111122 
DISL,ioos:station:DISL:DISL:1,2014-05-06T22:30:00Z,30.2513,-88.0778,24.57,1111122 
DISL,ioos:station:DISL:DISL:1,2014-05-06T23:00:00Z,30.2513,-88.0778,24.88,1111122 
DISL,ioos:station:DISL:DISL:1,2014-05-06T23:30:00Z,30.2513,-88.0778,24.34,1111122 